Content
SEND FEEDBACK

Daily
Averages
Monthly
Summary
United States of America

BERKELEY, MISSOURI


Home > North America > United States > Missouri
Elevation: 172 meters     Latitude: 38 45N     Longitude: 090 22W

WEATHER
 
SELECT A DAY
Number of Records: 208,302;   Date Range: 1/1/95 - 12/19/14
 
SHARE

PRINT THIS DATA

[ ← Previous Day ]
WEATHER ALMANAC - 21 APRIL, 2013
[ Next Day → ]
[ °F ]   °C
Weather ElementAverageHighLow
Temperature11.8 °C17.2 °C (3:51 pm)6.1 °C (3:51 am)
Dewpoint1.5 °C3.9 °C (4:51 pm)-1.1 °C (7:51 am)
Humidity50.3 %65 % (3:51 am)38 % (3:51 pm)
Barometer1027.8 hPa1030.5 hPa (7:51 am)1024.7 hPa (6:51 pm)
Wind Speed20.3 km/h27.8 km/h (7:51 am)
Wind Gust33.3 km/h (1:51 pm)
Weather ElementAverage
Visibility16.1 km
Wind DirectionESE (122.6 °)

Weather ElementTotal
Precipitation---
Heating Degree Days6.7 (Base 18.3)
Growing Degree Days1.7 (Base 10)
Averaged from 23 records on 21 April, 2013
WEATHER CONDITIONS BREAKOUT
WIND DIRECTION BREAKOUT
WEATHER BY HOUR - 21 APRIL, 2013
[ °F ]   °C
Local TimeTemperatureDewpointHumidityBarometerVisibilityWind DirectionWind SpeedGust SpeedPrecipitationEventsConditions
1:51 AM7.2 °C0 °C60 %1027.8 hPa16.1 kmESE (110°)14.8 km/hMostly Cloudy
2:51 AM7.2 °C0 °C60 %1028.1 hPa16.1 kmESE (120°)18.5 km/hMostly Cloudy
3:51 AM6.1 °C0 °C65 %1028.4 hPa16.1 kmESE (120°)14.8 km/hMostly Cloudy
4:51 AM6.7 °C0 °C63 %1028.8 hPa16.1 kmESE (110°)16.7 km/hMostly Cloudy
5:51 AM6.1 °C0 °C65 %1029.1 hPa16.1 kmESE (110°)20.4 km/hMostly Cloudy
6:51 AM6.1 °C-0.6 °C62 %1030.1 hPa16.1 kmESE (120°)20.4 km/hMostly Cloudy
7:51 AM6.7 °C-1.1 °C58 %1030.5 hPa16.1 kmESE (120°)27.8 km/hMostly Cloudy
8:51 AM8.3 °C-0.6 °C54 %1030.5 hPa16.1 kmSE (130°)22.2 km/hMostly Cloudy
9:51 AM10 °C0 °C50 %1030.5 hPa16.1 kmSE (130°)24.1 km/hMostly Cloudy
10:51 AM11.1 °C0.6 °C49 %1030.1 hPa16.1 kmSSE (150°)18.5 km/hMostly Cloudy
11:51 AM12.8 °C1.7 °C47 %1029.5 hPa16.1 kmSE (130°)20.4 km/hMostly Cloudy
12:51 PM14.4 °C2.2 °C44 %1028.8 hPa16.1 kmSE (140°)24.1 km/h31.5 km/hMostly Cloudy
1:51 PM16.7 °C2.8 °C39 %1027.4 hPa16.1 kmSE (130°)24.1 km/h33.3 km/hMostly Cloudy
2:51 PM16.7 °C2.8 °C39 %1026.8 hPa16.1 kmESE (120°)16.7 km/hMostly Cloudy
3:51 PM17.2 °C2.8 °C38 %1025.4 hPa16.1 kmSE (140°)20.4 km/hMostly Cloudy
4:51 PM16.7 °C3.9 °C43 %1025.1 hPa16.1 kmESE (110°)24.1 km/hMostly Cloudy
5:51 PM16.7 °C3.9 °C43 %1025.1 hPa16.1 kmESE (110°)22.2 km/hMostly Cloudy
6:51 PM15.6 °C3.3 °C44 %1024.7 hPa16.1 kmEast (100°)24.1 km/hMostly Cloudy
7:51 PM15 °C3.9 °C48 %1025.1 hPa16.1 kmESE (120°)20.4 km/hMostly Cloudy
8:51 PM14.4 °C3.3 °C47 %1025.7 hPa16.1 kmESE (120°)16.7 km/hMostly Cloudy
9:51 PM13.9 °C2.2 °C45 %1026.1 hPa16.1 kmESE (120°)22.2 km/hScattered Clouds
10:51 PM13.9 °C1.7 °C44 %1025.7 hPa16.1 kmSE (130°)20.4 km/hMostly Cloudy
11:51 PM11.7 °C1.7 °C50 %1025.7 hPa16.1 kmSE (130°)13 km/hScattered Clouds
Hourly data recorded from KSTL, located 0 kilometers away from Berkeley, Missouri







STORIES FROM OUR PARTNERS